Previsão horária em Celinowo

Hoje, 27 Julho, Terça-feira

Tempo Temperatura Precipitação Vento Pressão Humidade
00:00 +20°C° 0 mm 2 m/s 748 mmHg 93%
01:00 +20°C° 0 mm 2 m/s 749 mmHg 93%
02:00 +19°C° 0 mm 2 m/s 749 mmHg 93%
03:00 +19°C° 0 mm 2 m/s 749 mmHg 93%
04:00 +19°C° 0 mm 2 m/s 749 mmHg 92%
05:00 +20°C° 0.1 mm 2 m/s 749 mmHg 88%
06:00 +21°C° 0.1 mm 2 m/s 749 mmHg 84%
07:00 +23°C° 0.1 mm 2 m/s 749 mmHg 80%
08:00 +23°C° 0.1 mm 2 m/s 749 mmHg 83%
09:00 +21°C° 0.1 mm 2 m/s 749 mmHg 85%
10:00 +22°C° 0.1 mm 1 m/s 750 mmHg 87%
11:00 +23°C° 0.1 mm 2 m/s 750 mmHg 82%
12:00 +24°C° 0.1 mm 2 m/s 750 mmHg 77%
13:00 +25°C° 0.1 mm 3 m/s 750 mmHg 73%
14:00 +26°C° 0 mm 3 m/s 750 mmHg 65%
15:00 +28°C° 0 mm 3 m/s 750 mmHg 57%
16:00 +29°C° 0 mm 3 m/s 750 mmHg 50%
17:00 +28°C° 0 mm 3 m/s 749 mmHg 56%
18:00 +26°C° 0 mm 3 m/s 749 mmHg 63%
19:00 +25°C° 0 mm 2 m/s 749 mmHg 69%
20:00 +24°C° 0 mm 2 m/s 749 mmHg 71%
21:00 +23°C° 0 mm 1 m/s 750 mmHg 73%
22:00 +22°C° 0 mm 1 m/s 750 mmHg 75%
23:00 +22°C° 0 mm 1 m/s 750 mmHg 76%

Amanhã, 28 Julho, Quarta-feira

Tempo Temperatura Precipitação Vento Pressão Humidade
00:00 +22°C° 0 mm 1 m/s 750 mmHg 78%
01:00 +20°C° 0 mm 2 m/s 750 mmHg 79%
02:00 +20°C° 0 mm 2 m/s 750 mmHg 81%
03:00 +20°C° 0 mm 2 m/s 750 mmHg 82%
04:00 +19°C° 0 mm 2 m/s 749 mmHg 83%
05:00 +21°C° 0 mm 2 m/s 750 mmHg 77%
06:00 +24°C° 0 mm 2 m/s 750 mmHg 71%
07:00 +25°C° 0 mm 2 m/s 750 mmHg 65%
08:00 +27°C° 0 mm 2 m/s 750 mmHg 59%
09:00 +28°C° 0 mm 2 m/s 750 mmHg 53%
10:00 +30°C° 0 mm 2 m/s 749 mmHg 48%
11:00 +30°C° 0 mm 2 m/s 749 mmHg 47%
12:00 +30°C° 0 mm 2 m/s 749 mmHg 47%
13:00 +30°C° 0 mm 2 m/s 749 mmHg 46%
14:00 +29°C° 0.2 mm 3 m/s 749 mmHg 52%
15:00 +28°C° 0.2 mm 3 m/s 748 mmHg 58%
16:00 +26°C° 0.2 mm 4 m/s 748 mmHg 64%
17:00 +25°C° 0.7 mm 3 m/s 748 mmHg 70%
18:00 +24°C° 0.7 mm 2 m/s 748 mmHg 77%
19:00 +22°C° 0.7 mm 1 m/s 748 mmHg 83%
20:00 +22°C° 0.2 mm 1 m/s 748 mmHg 84%
21:00 +20°C° 0.2 mm 2 m/s 749 mmHg 85%
22:00 +20°C° 0.2 mm 2 m/s 749 mmHg 85%
23:00 +20°C° 0 mm 2 m/s 749 mmHg 87%

Depois de amanhã, 29 Julho, Quinta-feira

Tempo Temperatura Precipitação Vento Pressão Humidade
00:00 +19°C° 0 mm 3 m/s 749 mmHg 89%
01:00 +19°C° 0 mm 3 m/s 749 mmHg 91%
02:00 +19°C° 0 mm 3 m/s 749 mmHg 92%
03:00 +18°C° 0 mm 3 m/s 749 mmHg 93%
04:00 +18°C° 0 mm 3 m/s 749 mmHg 94%
05:00 +19°C° 0 mm 3 m/s 749 mmHg 89%
06:00 +20°C° 0 mm 3 m/s 749 mmHg 84%
07:00 +21°C° 0 mm 3 m/s 749 mmHg 80%
08:00 +22°C° 0 mm 4 m/s 749 mmHg 71%
09:00 +25°C° 0 mm 4 m/s 749 mmHg 62%
10:00 +26°C° 0 mm 4 m/s 749 mmHg 53%
11:00 +27°C° 0 mm 5 m/s 749 mmHg 49%
12:00 +28°C° 0 mm 6 m/s 749 mmHg 46%
13:00 +28°C° 0 mm 6 m/s 749 mmHg 42%
14:00 +28°C° 0 mm 6 m/s 749 mmHg 41%
15:00 +29°C° 0 mm 6 m/s 748 mmHg 40%
16:00 +29°C° 0 mm 6 m/s 748 mmHg 39%
17:00 +27°C° 0 mm 5 m/s 748 mmHg 43%
18:00 +26°C° 0 mm 4 m/s 748 mmHg 48%
19:00 +24°C° 0 mm 3 m/s 748 mmHg 53%
20:00 +22°C° 0 mm 3 m/s 748 mmHg 55%
21:00 +21°C° 0 mm 3 m/s 748 mmHg 56%
22:00 +20°C° 0 mm 2 m/s 748 mmHg 57%
23:00 +20°C° 0 mm 2 m/s 748 mmHg 58%

30 Julho, Sexta-feira

Tempo Temperatura Precipitação Vento Pressão Humidade
00:00 +20°C° 0 mm 2 m/s 748 mmHg 59%
01:00 +20°C° 0 mm 2 m/s 748 mmHg 60%
02:00 +20°C° 0 mm 2 m/s 748 mmHg 61%
03:00 +20°C° 0 mm 2 m/s 748 mmHg 62%
04:00 +20°C° 0 mm 2 m/s 748 mmHg 62%
05:00 +21°C° 0 mm 2 m/s 748 mmHg 60%
06:00 +21°C° 0 mm 2 m/s 747 mmHg 59%
07:00 +23°C° 0 mm 2 m/s 747 mmHg 57%
08:00 +25°C° 0 mm 2 m/s 747 mmHg 53%
09:00 +26°C° 0 mm 3 m/s 747 mmHg 49%
10:00 +27°C° 0 mm 4 m/s 747 mmHg 45%
11:00 +28°C° 0 mm 4 m/s 747 mmHg 43%
12:00 +29°C° 0 mm 5 m/s 747 mmHg 41%
13:00 +29°C° 0 mm 6 m/s 746 mmHg 39%
14:00 +29°C° 0 mm 6 m/s 746 mmHg 39%
15:00 +29°C° 0 mm 6 m/s 746 mmHg 38%
16:00 +29°C° 0 mm 6 m/s 746 mmHg 38%
17:00 +27°C° 0 mm 5 m/s 746 mmHg 44%
18:00 +25°C° 0 mm 4 m/s 745 mmHg 50%
19:00 +24°C° 0 mm 3 m/s 745 mmHg 56%
20:00 +23°C° 0 mm 2 m/s 745 mmHg 58%
21:00 +22°C° 0 mm 1 m/s 746 mmHg 60%
22:00 +20°C° 0 mm 1 m/s 746 mmHg 63%
23:00 +20°C° 0 mm 1 m/s 746 mmHg 64%

31 Julho, Sábado

Tempo Temperatura Precipitação Vento Pressão Humidade
00:00 +20°C° 0 mm 1 m/s 746 mmHg 65%
01:00 +19°C° 0 mm 1 m/s 746 mmHg 67%
02:00 +19°C° 0 mm 1 m/s 746 mmHg 68%
03:00 +18°C° 0 mm 1 m/s 746 mmHg 70%
04:00 +18°C° 0 mm 1 m/s 745 mmHg 72%
05:00 +20°C° 0 mm 1 m/s 745 mmHg 67%
06:00 +21°C° 0 mm 1 m/s 745 mmHg 63%
07:00 +23°C° 0 mm 1 m/s 745 mmHg 58%
08:00 +24°C° 0 mm 1 m/s 745 mmHg 53%
09:00 +26°C° 0 mm 2 m/s 745 mmHg 49%
10:00 +27°C° 0 mm 2 m/s 745 mmHg 44%
11:00 +28°C° 0 mm 3 m/s 745 mmHg 43%
12:00 +29°C° 0 mm 3 m/s 744 mmHg 41%
13:00 +30°C° 0 mm 4 m/s 744 mmHg 40%
14:00 +29°C° 0.1 mm 5 m/s 744 mmHg 45%
15:00 +28°C° 0.1 mm 5 m/s 744 mmHg 49%
16:00 +27°C° 0.1 mm 6 m/s 744 mmHg 54%
17:00 +24°C° 0.1 mm 6 m/s 744 mmHg 55%
18:00 +23°C° 0.1 mm 5 m/s 745 mmHg 56%
19:00 +22°C° 0.1 mm 5 m/s 745 mmHg 58%
20:00 +20°C° 0 mm 4 m/s 745 mmHg 60%
21:00 +19°C° 0 mm 4 m/s 746 mmHg 62%
22:00 +18°C° 0 mm 3 m/s 746 mmHg 64%
23:00 +17°C° 0 mm 3 m/s 746 mmHg 66%

1 Agosto, Domingo

Tempo Temperatura Precipitação Vento Pressão Humidade
00:00 +17°C° 0 mm 3 m/s 746 mmHg 69%
01:00 +16°C° 0 mm 3 m/s 746 mmHg 72%
02:00 +16°C° 0 mm 3 m/s 746 mmHg 72%
03:00 +16°C° 0 mm 3 m/s 746 mmHg 73%
04:00 +16°C° 0 mm 3 m/s 746 mmHg 73%
05:00 +17°C° 0 mm 3 m/s 747 mmHg 70%
06:00 +18°C° 0 mm 4 m/s 747 mmHg 66%
07:00 +20°C° 0 mm 4 m/s 747 mmHg 62%
08:00 +21°C° 0 mm 5 m/s 747 mmHg 58%
09:00 +22°C° 0 mm 5 m/s 747 mmHg 53%
10:00 +23°C° 0 mm 6 m/s 747 mmHg 48%
11:00 +24°C° 0 mm 6 m/s 747 mmHg 46%
12:00 +25°C° 0 mm 5 m/s 747 mmHg 44%
13:00 +26°C° 0 mm 5 m/s 747 mmHg 43%
14:00 +25°C° 0 mm 5 m/s 747 mmHg 45%
15:00 +25°C° 0 mm 4 m/s 747 mmHg 48%
16:00 +23°C° 0 mm 4 m/s 746 mmHg 50%
17:00 +22°C° 0 mm 3 m/s 746 mmHg 53%
18:00 +23°C° 0 mm 2 m/s 746 mmHg 55%
19:00 +21°C° 0 mm 2 m/s 746 mmHg 58%
20:00 +20°C° 0 mm 2 m/s 746 mmHg 60%
21:00 +19°C° 0 mm 2 m/s 746 mmHg 63%
22:00 +19°C° 0 mm 2 m/s 746 mmHg 65%
23:00 +18°C° 0 mm 2 m/s 746 mmHg 68%
Mostrar mais

Necessitamos do seu Consentimento

A Meteoprog e os seus Fornecedores de Serviços podem armazenar e aceder a dados pessoais como cookies, identificadores do dispositivo ou outras tecnologias semelhantes existentes no seu dispositivo e processar estes dados para personalizar conteúdos e anúncios, assim como funcionalidades nas redes sociais e análise de tráfego.

  • Armazenar e/ou aceder a informações no seu dispositivo

    Os cookies, identificadores do dispositivo ou outras informações podem ser armazenados ou acedidos no seu dispositivo, para os fins acima indicados.

  • Anúncios e conteúdos personalizados, medição de anúncios e conteúdos, dados sobre o público-alvo e desenvolvimento de produtos

    Os anúncios e os conteúdos podem ser personalizados com base num perfil. Podem ser adicionados dados adicionais para uma maior personalização dos anúncios e dos conteúdos. A eficácia dos anúncios e dos conteúdos pode ser medida. Podem ser obtidas informações sobre o público que visualizou os anúncios e os conteúdos. Estes dados podem ser usados para desenvolver ou melhorar sistemas, softwares ou a experiência do utilizador.

Ao clicar em "Eu concordo”, permitirá o uso de cookies, identificadores do dispositivo e web beacons mencionados ou outras tecnologias semelhantes. As configurações do navegador do seu dispositivo podem ser alteradas.

Para certos fins, podem ser invocados interesses legítimos ao invés de consentimento. Pode ler mais informação sobre este assunto na nossa Política de Privacidade e Cookies.